Location: Morisset
(33.1080°S, 151.4871°E)
Time: 12:54:46
(UTC+00:00)

GP-B - Pass Details

Date: 29 October 2020
Orbit: 631 x 635 km, 89.8° (Epoch: 23 November)

Event Time Altitude Azimuth Distance (km) Brightness Sun altitude
Rises 17:44:36 0° 181° (S) 2,966 6.9 -14.8°
Reaches altitude 10° 17:46:52 10° 183° (S) 2,050 6.0 -14.4°
Maximum altitude 17:51:21 69° 266° (W) 689 3.1 -13.5°
Drops below altitude 10° 17:55:46 10° 348° (NNW) 2,021 5.3 -12.7°
Enters shadow 17:57:24 - 350° (N) 2,687 6.0 -12.4°
